This is the latest recevied weather packets stored in our database for station/object WC4PEM-10. If no packets are shown the sender has not sent any weather packets the latest 10 day(s).
| Time | Temp. | Humidity | Pressure | Rain* | Wind** | Luminosity | Snow |
|---|---|---|---|---|---|---|---|
| 1778250550 | 28.89° C | 74% | 1015.6 hPa | 0 mm | - | - | - |
| 1778250380 | 28.89° C | 74% | 1015.6 hPa | 0 mm | - | - | - |
| 1778250244 | 28.33° C | 76% | 1015.4 hPa | 0 mm | - | - | - |
| 1778250080 | 28.33° C | 76% | 1015.4 hPa | 0 mm | - | - | - |
| 1778249905 | 28.33° C | 75% | 1015.5 hPa | 0 mm | - | - | - |
| 1778249780 | 28.33° C | 75% | 1015.5 hPa | 0 mm | - | - | - |
| 1778249559 | 28.33° C | 77% | 1015.6 hPa | 0 mm | - | - | - |
| 1778249479 | 28.33° C | 77% | 1015.6 hPa | 0 mm | - | - | - |
| 1778249365 | 27.78° C | 78% | 1015.7 hPa | 0 mm | - | - | - |
| 1778249180 | 27.78° C | 78% | 1015.7 hPa | 0 mm | - | - | - |
| 1778249077 | 27.78° C | 79% | 1015.7 hPa | 0 mm | - | - | - |
| 1778248880 | 27.78° C | 79% | 1015.7 hPa | 0 mm | - | - | - |
| 1778248795 | 27.78° C | 79% | 1015.7 hPa | 0 mm | - | - | - |
| 1778248580 | 27.78° C | 79% | 1015.7 hPa | 0 mm | - | - | - |
| 1778248479 | 27.78° C | 79% | 1015.7 hPa | 0 mm | - | - | - |
| 1778248286 | 27.22° C | 83% | 1015.6 hPa | 0 mm | - | - | - |
| 1778248280 | 27.78° C | 79% | 1015.7 hPa | 0 mm | - | - | - |
| 1778247980 | 27.22° C | 83% | 1015.6 hPa | 0 mm | - | - | - |
| 1778247865 | 27.22° C | 83% | 1015.8 hPa | 0 mm | - | - | - |
| 1778247707 | 27.22° C | 82% | 1015.6 hPa | 0 mm | - | - | - |
| 1778247680 | 27.22° C | 83% | 1015.8 hPa | 0 mm | - | - | - |
| 1778247627 | 27.22° C | 82% | 1015.6 hPa | 0 mm | - | - | - |
| 1778247380 | 27.22° C | 82% | 1015.6 hPa | 0 mm | - | - | - |
| 1778247080 | 26.67° C | 83% | 1015.6 hPa | 0 mm | - | - | - |
| 1778246835 | 26.67° C | 84% | 1015.6 hPa | 0 mm | - | - | - |
* Rain latest hour (hover to see other rain measurements)
** Current wind speed in m/s (hover to see current wind gust speed)